STARLINK-36696

Last updated on Thu Mar 05 2026 00:02:08 GMT+0000 (Coordinated Universal Time)

1 67651U 26022D 26063.51341461 .00289738 00000+0 18699-2 0 9990 2 67651 97.2829 97.2279 0001019 6.8599 353.2680 15.75292214 4737
UTC large
Height (km)
Speed (km/s)
/
Latitude / Longitude
Inclination (degrees)
Orbital Period (minutes)
Azimuth
Elevation
Range (km)
Doppler Factor

Next 0 passes for location: London (51.5072 / 0.1276)

Sorry there are no passes over London.